STARLINK-34241, 64229

Orbit data source: Space-Track

STARLINK-34241, 64229 is a payload satellite owned by SpaceX/Seattle (US) in LEO that was launched on Sat, 31 May 2025 UTC via an FALCON 9 launch vehicle from the Air Force Western Test Range (AFWTR). Payload-class satellites include a variety of spacecraft equipped with specific instruments for various scientific and technological missions. These include communications satellites like Starlink; space stations such as the ISS; scientific satellites like the Hubble; Earth observation satellites from companies like Planet Labs, Umbra, and HawkEye 360; GPS; miniature CubeSats for education and research; and military/defense satellites.

Loading next visibility...
Identifier
64229, 2025-117AC
Orbit
LEO
Country
Flag of USUS
Related business
Manufacturer
SpaceX/Seattle
Mission
Operational Commercial Communications
Bus & Motor
STARLINK V2MO, Unknown motor
Mass
575 kg wet, ~530 kg dry
Launch date (UTC)
2025-05-31 (1 year ago)
Launch vehicle
FALCON 9
Launch site
Air Force Western Test Range (AFWTR)
Object type
Payload
Rocket body
Debris
Shape & HBR
Box + 1 Pan, 17.7 m
Radar Cross Section
41.120 m², Large (>1 m²)

Expand to show TLE details & history
Last TLE update: 1 day ago

TLE from 1 day ago
0 STARLINK-34241
1 64229U 25117AC  26235.32005253  .00039412  00000-0  11716-2 0  9994
2 64229  53.1602 343.1292 0001579  81.4339 278.6842 15.34395468 70109
Epoch: 2026-08-23T07:40Z
TLE epoch observation values (Epoch: 2026-08-23T07:40:52.538Z)
Latitude
-0.00007°
Longitude
-103.70756°
Altitude
463.455 km
Speed
7.636 km/s
True Right ascension
22h 52m 30s
True Declination
0° 00' 00"
Sunlit
Object was in full shadow at epoch
Visualization orbit readout
Latitude
Unknown
Longitude
Unknown
Altitude
Unknown
Speed
Unknown
Apparent Right ascension
Unknown
Apparent Declination
Unknown
Sunlit
N/A
Visualization observer readout
Local Sidereal Time
23:04:02
Azimuth
Unknown
Elevation
Unknown
Doppler factor
Unknown
Orbital elements
Apogee altitude
464.054 km
Perigee altitude
461.893 km
Semi-major axis
6,841.111 km
Eccentricity
0.00016
Inclination
53.1602°
RAAN
343.1292°
Arg. of periapsis
81.4339°
True anomaly
278.66631°
Mean anomaly
278.6842°
Eccentric anomaly
278.67526°
Mean motion
3.83578 °/min
Orbital period
93.85 mins
BSTAR
0.0011716
Loading maneuver chart data...
Computing Atmospheric mass density...
Loading historical data...
Loading historical data...
Loading historical data...
Loading historical data...
Loading historical data...
Loading historical data...
Loading historical data...

Documentation

Showing up to 5 results
|